Greenwood, SC

12:51 AM EDT on July 28, 2017 (GMT -0400)
Greenwood County

Weather History for KGRD - October, 2012

Change the Weather History Date:

Friday, October 19, 2012

  Actual Average (KAND) Record (KAND)
Temperature  
Mean Temperature 62 °F -  
Max Temperature 73 °F 72 °F 89 °F (2016)
Min Temperature 51 °F 47 °F 33 °F (1978)
Degree Days  
Heating Degree Days 3    
Growing Degree Days 12 (Base 50)    
Moisture  
Dew Point 44 °F    
Average Humidity 61    
Maximum Humidity 97    
Minimum Humidity 19    
Precipitation  
Precipitation 0.01 in - - ()
Sea Level Pressure  
Sea Level Pressure 29.81 in    
Wind  
Wind Speed 5 mph (WSW)    
Max Wind Speed 15 mph    
Max Gust Speed 24 mph    
Visibility 9 miles    
Events      
Averages and records for this station are not official NWS values.
T = Trace of Precipitation, MM = Missing Value Source: NWS Daily Summary

Daily Weather History Graph

Daily Weather History Graph

Search for Another Location

Airport or City:

Trip Planner

Search our weather history database for the weather conditions in past years. The results will help you decide how hot, cold, wet, or windy it might be!

Date:

Astronomy

Oct. 19, 2012 Rise Set
Actual Time 7:37 AM EDT 6:48 PM EDT
Civil Twilight 7:12 AM EDT 7:14 PM EDT
Nautical Twilight 6:42 AM EDT 7:43 PM EDT
Astronomical Twilight 6:13 AM EDT 8:12 PM EDT
Moon 12:10 PM EDT (10/19) 10:34 PM EDT (10/19)
Length of Visible Light 12h 02m
Length of Day
11h 11m
Waxing Crescent, 23% of the Moon is Illuminated
Oct 19
Waxing Crescent
Oct 21
First Quarter
Oct 29
Full
Nov 6
Last Quarter
Nov 13
New

Hourly Weather History & Observations

Time (EDT) Temp. Dew Point Humidity Pressure Visibility Wind Dir Wind Speed Gust Speed Precip Events Conditions
12:23 AM 60.8 °F 59.0 °F 94% 29.82 in 2.0 mi Calm Calm - N/A   Clear
12:33 AM 60.8 °F 59.0 °F 94% 29.82 in 4.0 mi Calm Calm - N/A   Clear
12:56 AM 59.0 °F 57.9 °F 96% 29.80 in 6.0 mi West 4.6 mph - N/A   Clear
1:56 AM 63.0 °F 61.0 °F 93% 29.80 in 10.0 mi WSW 8.1 mph - N/A   Clear
2:56 AM 61.0 °F 57.9 °F 90% 29.80 in 10.0 mi WSW 5.8 mph - 0.01 in   Clear
3:56 AM 59.0 °F 55.0 °F 87% 29.80 in 10.0 mi West 5.8 mph - N/A   Clear
4:56 AM 55.0 °F 53.1 °F 93% 29.80 in 10.0 mi WSW 3.5 mph - N/A   Clear
5:56 AM 52.0 °F 51.1 °F 97% 29.81 in 10.0 mi WSW 4.6 mph - N/A   Clear
6:56 AM 52.0 °F 51.1 °F 97% 29.83 in 10.0 mi SSW 3.5 mph - N/A   Clear
7:56 AM 51.1 °F 48.0 °F 89% 29.83 in 10.0 mi WSW 4.6 mph - N/A   Clear
8:56 AM 55.9 °F 48.9 °F 77% 29.84 in 10.0 mi SW 6.9 mph - N/A   Clear
9:56 AM 61.0 °F 45.0 °F 56% 29.83 in 10.0 mi West 9.2 mph - N/A   Clear
10:56 AM 64.9 °F 42.1 °F 43% 29.84 in 10.0 mi WSW 6.9 mph - N/A   Clear
11:56 AM 70.0 °F 36.0 °F 29% 29.84 in 10.0 mi SW 12.7 mph 17.3 mph N/A   Clear
12:56 PM 71.1 °F 27.0 °F 19% 29.83 in 10.0 mi West 15.0 mph 23.0 mph N/A   Clear
1:56 PM 72.0 °F 28.0 °F 20% 29.80 in 10.0 mi West 10.4 mph 24.2 mph N/A   Clear
3:56 PM 73.9 °F 28.9 °F 19% 29.75 in 10.0 mi WSW 6.9 mph 21.9 mph N/A   Clear
5:56 PM 71.1 °F 28.9 °F 21% 29.76 in 10.0 mi WSW 13.8 mph 18.4 mph N/A   Clear
6:56 PM 64.0 °F 32.0 °F 30% 29.77 in 10.0 mi SW 3.5 mph - N/A   Clear
7:56 PM 57.9 °F 34.0 °F 41% 29.79 in 10.0 mi SW 6.9 mph - N/A   Clear
8:56 PM 60.1 °F 33.1 °F 36% 29.80 in 10.0 mi WSW 4.6 mph - N/A   Clear
10:56 PM 55.9 °F 34.0 °F 44% 29.82 in 10.0 mi SW 4.6 mph - N/A   Clear
11:56 PM 55.9 °F 35.1 °F 45% 29.81 in 10.0 mi WSW 6.9 mph - N/A   Clear